Location: Gairloch Mountain Observatory
(46.1383°N, 60.9640°W)
Time: 07:49:03
(UTC-04:00)

Daily predictions for brighter satellites

Satellite Brightness Start Highest point End
(mag) Time Altitude Azimuth Time Altitude Azimuth Time Altitude Azimuth
IRS-1A Rocket 4.2 16:41:55 10° SSE 16:47:23 72° ENE 16:52:56 10° N
CSL-04 Debris 4.2 16:42:33 10° SSE 16:47:57 85° ENE 16:53:24 10° NNW
Meteor 2-19 Rocket 4.5 16:43:37 10° N 16:49:43 86° E 16:55:46 10° S
Timation 2 Rocket 4.3 16:43:15 10° NNW 16:50:02 62° ENE 16:56:51 10° SE
Cosmos 1536 Rocket 3.9 16:46:06 10° SSE 16:50:22 46° E 16:54:40 10° NNE
Cosmos 1844 Rocket 3.3 16:45:00 10° SW 16:50:30 56° WNW 16:56:04 10° NNE
Abrixas 4.1 16:54:48 10° W 16:57:34 36° SSW 17:00:18 10° SE
CORIOLIS 4.5 16:52:33 10° SE 16:57:37 43° ENE 17:02:41 10° N
YAOGAN 1 3.0 16:57:08 10° SE 17:01:12 41° ENE 17:05:17 10° N
SPOT 3 Rocket 3.7 16:57:30 10° SE 17:02:30 53° ENE 17:07:31 10° N
Cosmos 1484 Rocket 4.1 17:00:20 10° ESE 17:02:53 18° ENE 17:05:27 10° NNE
USA 32 4.1 16:58:26 10° S 17:03:39 90° NNW 17:08:55 10° N
COSMOS 2487 2.5 17:02:46 10° NNW 17:06:24 88° WSW 17:09:58 10° SSE
CZ-2C R/B 3.8 17:05:24 10° NNE 17:09:53 82° WNW 17:14:24 10° SSW
Nadezhda 3 Rocket 4.3 17:06:29 10° SSE 17:12:18 44° E 17:18:13 10° NNE
CZ-3A R/B 3.6 17:07:49 10° WSW 17:12:40 73° NNW 17:36:03 13° ENE
NOSS 2-1 (E) 4.3 17:10:04 10° S 17:13:35 33° ESE 17:16:59 13° ENE
Cosmos 1455 Rocket 3.6 17:09:35 10° NNW 17:13:59 64° W 17:18:22 10° S
Cosmos 1238 Rocket 2.8 17:13:31 10° SSW 17:16:31 62° W 17:19:56 10° N
Cosmos 1975 2.9 17:12:41 10° N 17:16:47 87° WSW 17:20:48 10° S
Cosmos 1812 3.0 17:13:24 10° SSW 17:17:14 70° W 17:21:07 10° N
SJ-7 4.5 17:15:54 10° SSE 17:20:04 61° ENE 17:24:17 10° N
Cosmos 1809 Rocket 4.4 17:16:05 10° N 17:22:15 72° E 17:28:20 10° SSE
OE (NEXTSAT) 4.4 17:18:42 10° WSW 17:22:18 80° SSE 17:25:04 16° E
MOS 1 4.3 17:19:35 10° SSE 17:25:15 85° ENE 17:30:56 10° NNW
EP 1 4.2 17:25:03 10° SW 17:27:37 84° NW 17:29:25 18° NE
USA 234 3.6 17:24:26 13° ENE 17:30:04 51° SE 17:36:23 10° SSW
TIMED 4.5 17:26:59 10° SSW 17:31:20 75° ESE 17:35:43 10° NNE
Thor Agena Rocket 3.6 17:26:34 10° NNE 17:31:48 71° ESE 17:37:04 10° S
SL-8 R/B 3.7 17:27:21 10° W 17:32:08 73° N 17:35:34 19° ENE
Cosmos 2297 3.7 17:26:38 10° SSW 17:32:15 76° ESE 17:37:54 10° NNE
MSX 3.8 17:28:04 10° SSE 17:33:45 67° ENE 17:39:28 10° N
CZ-4 R/B 1.9 17:29:45 10° S 17:33:52 64° W 17:37:57 10° NNW
IDEFIX/ARIANE 42P 2.6 17:30:38 10° SSE 17:35:49 84° WSW 17:41:03 10° NNW
CZ-4 R/B 4.3 17:33:40 10° SSE 17:37:48 75° ENE 17:41:59 10° N
COSMOS 2441 4.4 17:33:52 10° SSE 17:38:40 61° ENE 17:43:31 10° N
CZ-2C R/B 2.7 17:34:18 10° S 17:39:22 76° WSW 17:44:35 10° NNW
Cosmos 2278 Rocket 3.0 17:34:05 10° SW 17:39:35 51° WNW 17:45:07 10° NNE
GRACE-2 4.0 17:39:00 10° SSE 17:41:41 48° E 17:43:19 20° NNE
Cosmos 1726 Rocket 4.3 17:37:50 10° N 17:41:51 31° ENE 17:45:50 10° SE
GRACE-1 4.0 17:39:25 10° SSE 17:42:07 49° E 17:43:47 20° NNE
MONITOR-E 4.2 17:39:55 10° SSE 17:43:04 58° ENE 17:46:14 10° N
NOSS 3-4 (A) 3.7 17:39:06 10° NW 17:46:05 80° NE 17:53:31 10° SE
NOSS 3-4 (C) 3.7 17:39:11 10° NW 17:46:12 79° NE 17:53:37 10° SE
Cosmos 1666 3.0 17:43:07 10° N 17:46:51 44° ENE 17:50:34 10° SSE
Okean 1-7 Rocket 3.5 17:44:50 10° S 17:49:18 71° E 17:53:45 10° NNE
Cosmos 1934 Rocket 4.1 17:43:30 10° N 17:49:36 53° ENE 17:55:44 10° SSE
ASTRO F (AKARI) 4.2 17:48:37 24° NNE 17:50:19 60° ESE 17:53:27 10° S
SMAP 3.7 17:46:34 10° S 17:51:08 58° W 17:55:45 10° NNW
Cosmos 1833 Rocket 3.1 17:45:37 10° NNW 17:51:13 67° WSW 17:56:47 10° SSE
BREEZE-M DEB (TANK) 2.2 17:52:19 10° W 17:54:22 44° N 17:54:46 39° NNE
SL-24 DEB 4.3 17:50:19 10° N 17:55:04 82° W 17:59:44 10° S
BREEZE-M R/B 4.2 17:47:26 10° WSW 17:58:13 83° NNW 18:01:09 28° ENE
Intercosmos 25 3.3 17:58:05 10° NNW 18:01:14 66° W 18:04:41 10° S
Cosmos 1606 Rocket 3.6 17:57:27 10° N 18:01:54 58° ENE 18:06:19 10° SSE
Cosmos 1535 Rocket 4.4 17:55:40 10° N 18:01:59 80° E 18:08:11 10° S
Cosmos 2082 Rocket 3.3 17:57:11 10° NW 18:02:37 47° WSW 18:08:01 10° S
Cosmos 1346 Rocket 4.0 17:59:48 10° SW 18:03:29 40° WNW 18:07:10 10° N
Tiangong 1 1.7 18:01:05 10° WSW 18:04:00 43° S 18:04:35 37° SSE
Cosmos 407 Rocket 3.4 18:00:05 10° NNW 18:05:11 62° ENE 18:10:18 10° SSE
CZ-3B DEB 3.0 18:02:34 10° W 18:07:03 58° NNW 18:13:46 22° NE
ERBS 2.8 18:05:20 10° NW 18:08:22 42° NNE 18:08:22 42° NNE
Cosmos 2056 Rocket 3.5 18:06:25 10° S 18:11:43 67° ESE 18:14:41 26° NNE
COSMO-SKYMED 1 2.4 18:09:03 22° NNE 18:11:48 70° ESE 18:16:07 10° S
Cosmos 2239 Rocket 4.5 18:06:44 10° N 18:12:57 84° W 18:19:06 10° S
BREEZE-M DEB (TANK) 3.4 18:06:41 10° WNW 18:13:03 58° N 18:13:39 49° NE
Cosmos 1743 3.8 18:09:33 10° NNW 18:13:18 46° W 18:16:59 10° SSW
Cosmos 921 Rocket 3.8 18:09:24 10° SW 18:13:35 51° WNW 18:17:14 14° N
Meteor 1-28 Rocket 3.8 18:16:38 39° SE 18:16:38 39° SE 18:19:29 10° S
Cosmos 1025 Rocket 3.0 18:12:03 10° S 18:16:26 89° E 18:19:40 18° N
Cosmos 676 Rocket 4.0 18:12:40 10° NNW 18:17:49 57° ENE 18:21:58 15° SE
Cosmos 1954 Rocket 4.1 18:16:27 10° NNW 18:21:30 49° ENE 18:22:42 41° ESE
ISS -2.0 18:18:30 10° WNW 18:20:54 31° NNW 18:20:54 31° NNW
Cosmos 1624 Rocket 3.9 18:19:09 10° SSW 18:24:21 90° WNW 18:27:16 27° NNE
Cosmos 1821 Rocket 4.2 18:20:03 10° NNW 18:26:07 70° W 18:32:10 10° S
Cosmos 1371 Rocket 4.3 18:25:23 10° SSW 18:30:43 67° WNW 18:34:18 21° NNE
Cosmos 1153 Rocket 4.5 18:24:57 10° N 18:30:58 53° ENE 18:36:55 10° SSE
Cosmos 1140 Rocket 4.0 18:27:46 10° N 18:31:40 40° NNE 18:31:40 40° NNE
NOAA 12 3.9 18:30:45 10° SSE 18:36:01 84° ENE 18:41:18 10° NNW
Cosmos 1605 Rocket 3.9 18:30:42 10° N 18:37:02 83° E 18:43:13 10° S
Cosmos 1484 Rocket 4.2 18:33:38 10° SSW 18:37:06 37° W 18:40:35 10° NNW
Cosmos 2058 Rocket 3.0 18:35:26 10° N 18:39:56 89° W 18:44:22 10° S
Cosmos 2369 Rocket 2.8 18:36:39 10° S 18:40:58 40° SE 18:40:58 40° SE
BREEZE M DEB (TANK) 2.5 18:39:18 10° WSW 18:44:40 65° SW 18:44:40 65° SW
Meteor 2-4 Rocket 4.4 18:49:07 10° SSW 18:54:18 50° WNW 18:58:57 13° N
Okean 2 4.2 18:55:57 10° SSW 18:59:59 49° WNW 19:00:15 48° WNW
Cosmos 1452 Rocket 3.7 18:55:16 10° SSW 18:59:27 57° S 18:59:27 57° S
METEOR-M 4.5 19:01:10 10° S 19:06:28 64° W 19:11:48 10° NNW
GEOS 3 Rocket 3.7 19:12:10 73° W 19:12:10 73° W 19:16:59 10° NW
BREEZE-M DEB (TANK) 3.5 19:06:56 10° WNW 19:11:01 52° NW 19:11:01 52° NW
USA 234 3.5 19:11:47 50° NNE 19:13:10 61° NNW 19:19:35 10° WSW
Cosmos 1727 Rocket 4.1 19:12:54 10° SSW 19:19:04 71° W 19:21:21 41° N
Cosmos 2369 Rocket 4.5 20:20:59 10° WSW 20:22:50 19° WSW 20:22:50 19° WSW
CZ-3B DEB 4.2 20:35:25 10° WNW 20:41:21 53° NNW 20:41:21 53° NNW
